Voltar ao catálogo

STARLINK-35158

AtivoComunicaçõesVLEO
NORAD 66381·PAYLOAD·🇺🇸 United States

Lançado Nov 8, 2025 de Cape Canaveral Space Force Station

Loading…

Próximas Passagens (próximas 24 horas)

TLE

AtualizadoSource: CelesTrak SupGP

Época: Sep 14, 2026, 21:21 UTC

1 66381C 25257B   26257.89006944  .00040656  00000+0  12007-2 0  2576
2 66381  53.1579  55.7265 0001151  83.8487   1.0818 15.34383435    10

Acompanhe STARLINK-35158 em tempo real com AllMySat

Download on the App Store